Wind_Speed
10 10 10 10 11 11 10 10 12 14 15 14 14 15 16 16 16 16 16 16 17 17 17 18 19 18 19 21 20 19 19 19 19 20 21 21 22 22 22 24 23 23 24 23 22 22 22 21 21 21 20 20 22 24 25 25 25 24 24 24 24 23 20 16 14 15 18 17 16 17 14 12 12 9 6 8 8 10 11 10 10 10 9 9 8
12 12 11 11 11 11 11 12 13 14 14 14 14 16 16 17 17 16 18 19 20 20 21 22 22 21 22 22 22 21 21 21 21 20 20 20 21 21 21 21 22 21 22 22 22 24 25 23 21 21 21 21 21 21 22 23 24 25 25 26 25 24 23 19 15 15 18 18 16 16 15 13 13 11 10 9 9 11 11 11 12 12 11 11 10
13 13 13 12 13 14 14 15 15 15 15 15 17 18 18 17 18 19 21 22 22 22 22 21 20 20 20 20 20 19 19 19 18 18 19 18 20 22 20 19 20 20 20 19 19 22 24 25 24 23 23 23 23 22 21 21 21 22 23 25 26 25 24 22 17 14 16 18 17 15 15 14 13 13 12 11 11 12 13 12 11 11 12 12 11
13 12 12 14 15 16 15 16 17 17 18 19 19 19 20 20 21 22 21 21 22 21 21 21 20 18 17 17 17 17 17 17 18 20 21 20 21 24 23 21 21 21 22 21 20 20 21 23 25 25 25 25 27 27 25 25 24 24 23 23 25 25 25 25 20 16 15 14 15 15 13 11 11 14 15 13 11 13 15 13 11 11 12 13 12
16 14 13 14 16 17 16 17 17 18 21 21 20 20 20 20 20 20 20 21 22 22 21 21 22 21 20 19 19 19 18 19 21 22 22 22 21 24 24 22 21 22 24 24 21 21 21 22 24 24 24 25 27 29 28 28 28 28 26 24 26 26 25 26 24 21 19 17 15 15 13 10 8 10 13 13 13 15 16 15 15 13 13 14 13
17 16 16 16 17 17 17 18 19 20 20 19 19 18 18 18 18 19 20 21 21 21 21 21 22 22 22 21 21 21 20 20 21 21 22 22 20 22 23 21 20 21 24 25 23 22 22 24 24 23 24 25 26 28 29 29 29 30 29 26 29 31 27 26 28 25 23 22 20 18 16 16 15 12 11 13 13 14 15 16 16 14 14 15 14
17 18 17 18 19 18 18 19 20 18 17 17 17 17 17 17 18 19 20 20 19 20 20 20 20 20 21 20 19 19 19 19 19 19 20 20 19 21 22 20 20 21 22 23 22 21 23 25 24 25 26 26 27 28 29 30 31 31 30 27 28 30 29 29 30 28 25 24 22 20 17 18 20 18 14 15 14 13 15 17 17 16 16 14 12
18 18 18 18 18 18 18 18 17 16 16 16 16 16 16 16 17 17 18 18 18 18 19 20 19 19 19 19 18 18 19 18 18 18 20 20 19 20 22 21 21 21 22 22 21 21 23 24 24 25 27 27 29 29 30 31 31 31 30 30 29 27 28 29 32 31 28 26 23 21 19 17 18 20 20 19 19 18 18 18 18 17 16 14 13
18 18 18 18 18 18 17 17 16 15 15 15 15 14 14 15 16 16 16 17 17 17 18 19 19 19 18 18 18 18 18 18 18 19 20 21 20 21 22 22 22 22 22 22 21 21 24 24 23 25 26 28 29 29 30 30 31 32 32 33 32 29 28 27 30 32 31 30 27 25 23 18 15 18 20 17 17 20 20 20 21 20 18 18 15
18 18 18 17 18 17 17 16 15 15 14 14 14 14 13 14 14 15 15 16 16 17 18 18 19 19 19 19 18 18 19 19 19 20 21 21 21 22 23 23 23 22 22 23 23 23 25 25 24 25 26 28 29 29 30 30 31 32 34 34 34 32 30 28 28 30 32 32 28 26 24 19 14 15 17 14 16 20 19 20 23 23 22 20 17
17 17 17 17 17 17 16 16 15 15 14 14 14 14 13 14 14 15 16 15 16 17 18 19 19 20 20 19 19 18 19 20 20 21 22 22 22 24 24 23 23 22 22 23 24 24 26 26 25 26 27 28 29 30 30 31 31 32 32 32 32 32 30 29 28 27 27 28 26 25 24 21 15 14 17 15 16 19 19 21 24 23 22 22 19
16 15 16 16 16 16 16 16 15 15 14 14 14 14 13 14 14 15 16 17 17 18 18 18 18 19 21 20 20 19 19 20 20 21 22 22 23 24 24 24 24 23 23 23 24 25 26 27 26 26 27 28 28 30 32 32 33 33 33 33 32 31 30 29 28 26 24 24 25 24 24 24 18 13 17 16 16 18 21 23 23 23 22 23 20
15 15 15 15 15 15 14 15 14 14 14 14 14 13 13 13 13 15 16 17 17 17 17 18 18 19 21 21 20 20 20 20 20 20 21 22 23 23 23 24 24 23 24 24 25 26 27 27 26 26 28 28 28 31 32 33 35 34 34 34 33 31 29 28 27 26 23 22 24 22 23 24 20 14 17 17 15 15 21 23 22 23 22 22 20
14 15 15 14 14 14 14 14 14 14 14 13 13 12 12 13 13 14 14 16 17 17 17 19 19 19 20 20 20 20 20 20 20 20 21 21 22 22 22 24 24 24 24 24 25 26 27 28 27 26 29 29 29 31 33 35 37 36 36 34 32 31 29 27 26 25 23 21 21 22 22 19 19 17 17 13 11 13 20 24 23 23 21 20 20
14 15 15 14 14 13 13 13 12 13 12 12 12 12 12 13 14 14 14 16 18 18 18 19 19 19 20 20 20 20 19 20 20 20 20 20 22 22 22 23 24 24 25 24 25 27 28 28 27 27 30 30 29 31 34 36 37 38 39 35 32 31 30 27 25 24 23 20 19 21 20 14 15 13 12 7 7 12 20 25 24 25 22 19 20
14 14 14 14 13 13 13 12 11 11 11 11 11 12 12 13 14 15 15 16 19 19 18 18 19 19 20 20 20 20 20 21 21 21 21 21 22 23 23 24 24 25 25 25 26 26 27 27 27 27 30 29 28 31 34 35 37 38 40 38 35 32 31 30 26 23 23 20 18 18 14 10 11 11 10 7 4 8 19 24 24 29 28 22 21
13 14 14 13 12 12 12 12 11 10 10 11 11 12 12 13 16 16 15 16 18 18 18 18 19 19 20 21 21 22 22 22 23 23 23 22 23 23 23 24 24 25 25 25 26 26 26 27 26 27 29 28 27 31 34 34 36 37 39 40 37 31 30 31 28 25 22 18 17 14 10 9 10 11 10 8 7 5 15 24 25 26 25 23 24
13 14 13 13 12 11 11 11 11 11 11 11 12 13 13 13 16 17 16 16 17 18 18 17 18 20 21 22 23 23 23 23 23 23 23 23 23 24 24 25 25 25 25 25 26 26 26 27 26 27 28 27 27 31 33 34 35 37 38 39 38 33 29 29 29 25 21 18 15 12 9 8 8 7 6 4 5 5 10 22 27 25 20 19 22
13 13 13 12 12 11 11 11 10 10 11 11 11 13 13 13 16 18 16 16 17 18 18 17 18 21 23 24 24 24 24 24 23 23 23 23 24 24 24 25 25 25 25 26 26 26 26 27 27 27 27 27 29 32 34 35 36 37 38 39 38 35 30 30 29 24 18 15 12 8 8 7 6 5 3 1 4 6 6 17 26 25 19 17 18
12 13 12 11 11 11 11 11 11 10 10 10 11 13 14 12 15 17 16 15 16 17 18 18 19 20 23 25 24 24 24 24 24 23 23 24 24 24 25 25 25 25 26 26 26 26 26 27 27 26 27 30 32 34 36 38 38 37 37 39 39 34 31 33 31 22 14 10 6 3 5 5 4 3 2 2 4 4 5 13 21 22 18 17 17
13 12 11 10 9 9 9 9 10 10 10 10 10 12 14 12 14 16 16 15 15 16 17 19 20 21 23 25 24 24 24 24 25 23 23 24 24 24 25 25 25 25 25 26 26 25 26 27 26 26 29 32 34 35 38 40 39 38 37 38 38 34 33 35 31 21 13 7 3 3 4 4 3 2 2 3 4 4 5 9 16 20 17 15 18
13 12 11 10 9 8 9 8 9 10 10 10 10 11 13 13 13 14 16 15 15 16 17 19 21 22 23 24 24 24 24 23 25 24 23 25 25 24 25 25 25 25 25 25 26 26 26 26 25 27 31 33 35 37 39 40 39 38 37 36 36 34 33 37 31 19 13 7 2 3 3 3 2 2 3 4 6 6 4 7 11 15 15 13 18
13 12 11 10 9 9 10 10 10 10 11 10 9 10 12 12 12 13 15 16 15 16 17 19 21 22 22 23 24 24 23 23 25 25 24 25 25 25 25 25 25 25 25 25 25 25 26 26 26 28 32 34 36 38 39 39 39 37 34 34 35 32 31 34 30 17 9 5 2 0 2 2 1 3 5 5 6 6 3 5 8 12 14 15 20
13 11 10 10 10 10 10 10 10 10 10 10 9 10 11 12 13 12 14 16 16 16 17 19 20 21 23 24 24 24 24 24 25 25 25 25 25 25 25 24 24 25 25 25 25 25 25 26 27 29 32 34 37 39 39 39 37 35 32 32 34 31 27 30 29 20 15 12 9 6 4 1 1 3 6 8 5 3 2 1 6 10 13 16 20
13 12 11 11 11 11 10 10 9 9 9 10 10 10 10 12 13 12 13 16 17 17 17 19 20 22 23 23 23 24 24 24 25 25 25 25 24 25 24 24 24 24 25 25 25 25 25 26 27 29 32 35 37 38 38 37 36 33 32 33 33 29 25 25 26 23 20 17 14 12 9 5 4 5 7 11 9 5 6 5 3 7 12 16 20
14 13 12 11 10 10 10 9 9 8 8 9 10 10 10 11 12 13 13 16 17 17 17 19 20 22 23 22 23 23 23 24 24 25 25 25 25 25 24 25 25 25 25 25 26 26 26 26 26 29 33 35 36 37 36 36 36 33 32 33 33 28 22 20 21 22 21 19 15 13 11 8 8 9 10 13 13 13 12 9 5 6 11 15 17
13 12 11 11 10 9 9 9 8 8 8 9 9 10 11 11 12 13 13 15 17 17 17 19 20 21 22 21 22 22 23 24 25 25 26 25 25 25 24 24 25 25 25 25 26 27 26 25 26 29 33 33 35 36 36 37 37 34 33 33 32 30 23 15 15 16 17 20 19 15 13 12 12 14 12 12 14 16 16 14 10 7 8 14 17
12 12 11 10 10 9 8 8 8 8 8 9 9 10 10 11 12 13 14 15 17 17 17 18 19 20 21 20 21 22 22 24 24 24 25 25 25 25 23 23 25 25 25 25 25 25 23 23 25 27 30 32 35 38 38 39 36 33 33 32 30 30 24 15 14 13 11 16 20 17 16 16 17 16 14 12 13 14 14 14 12 8 6 11 15
11 12 11 10 9 8 8 7 7 8 8 8 9 9 10 11 12 13 14 14 16 17 17 18 18 19 20 20 20 21 22 23 24 24 25 24 25 25 23 23 25 26 25 25 25 24 23 23 24 25 28 31 37 40 39 37 35 32 31 29 28 29 24 16 16 14 7 9 16 17 16 18 19 18 16 15 15 14 12 11 12 9 7 6 8
11 11 11 10 9 8 7 7 7 7 8 8 8 9 10 11 12 13 14 14 15 17 17 17 18 19 19 19 20 20 22 23 24 25 24 25 25 25 23 23 25 26 25 26 27 26 25 25 23 24 28 32 37 40 37 34 32 29 28 28 27 28 25 18 16 14 7 7 13 16 13 16 19 19 18 18 18 15 11 8 9 8 7 5 6
12 11 11 10 9 8 8 7 7 7 8 8 8 9 10 11 12 12 13 14 15 16 16 16 17 18 19 19 19 20 22 23 24 24 25 26 26 25 25 25 25 25 23 24 26 26 26 26 25 26 29 31 36 39 37 33 32 28 25 27 27 26 27 24 17 12 8 8 12 16 13 15 20 19 16 16 16 16 14 8 5 7 8 7 8
13 11 11 10 10 9 8 7 7 7 8 8 8 8 9 11 12 12 13 14 14 15 16 16 16 18 18 19 19 21 23 23 23 25 26 26 26 25 25 25 25 25 25 25 26 26 26 26 27 28 29 30 34 38 37 35 32 27 23 26 26 23 25 27 19 11 9 8 11 15 13 15 19 17 14 13 12 15 17 11 5 5 8 8 6
13 12 12 11 10 9 8 7 7 7 7 8 8 9 9 10 11 12 13 13 13 14 15 16 16 17 18 19 20 21 22 22 24 25 26 27 27 27 25 24 24 25 26 27 27 26 26 26 28 28 28 30 33 36 38 37 32 25 23 26 27 23 23 25 21 12 8 8 11 14 13 14 16 15 15 13 11 13 16 15 10 6 6 5 4
14 13 13 11 10 9 8 8 7 7 7 7 8 9 9 10 11 11 12 13 13 14 15 16 16 17 19 20 20 21 21 22 24 25 26 27 28 27 25 24 25 25 26 26 25 25 25 26 28 28 27 29 32 35 37 37 31 25 23 26 28 24 21 22 21 15 8 6 11 14 13 14 15 15 16 14 11 13 16 16 12 7 4 3 3
17 15 13 11 9 9 9 8 7 7 7 7 8 9 9 9 10 11 11 12 12 13 15 16 16 17 19 20 20 20 20 22 24 25 26 27 28 27 25 24 25 26 26 24 23 24 25 25 26 28 27 28 30 34 36 36 32 25 21 24 27 26 23 19 19 16 8 5 10 13 12 13 14 16 17 13 12 14 15 15 12 8 6 4 2
18 16 13 10 9 9 9 9 8 7 7 7 7 8 9 9 9 10 10 11 12 13 15 16 16 17 18 19 18 18 20 21 22 24 25 26 27 27 25 24 25 26 25 24 23 24 24 24 24 26 27 27 28 33 35 34 32 26 22 23 26 27 27 22 19 16 9 4 8 12 11 11 12 14 15 12 11 12 13 14 12 10 9 7 2
19 15 12 10 8 8 8 9 9 8 7 8 7 7 8 9 9 9 9 11 12 13 14 15 16 16 18 18 17 17 19 20 21 23 24 24 26 27 25 24 25 26 26 25 23 21 21 21 22 25 27 27 28 32 33 33 32 28 25 26 27 27 28 26 23 19 10 3 7 12 11 10 11 13 14 11 8 9 11 12 12 9 10 10 6
18 14 11 9 8 8 8 8 8 8 8 8 8 8 8 8 9 8 9 11 12 13 14 15 16 16 16 17 17 17 19 19 20 21 22 22 25 25 24 23 24 24 25 25 23 22 21 20 22 25 27 27 30 31 30 31 32 29 28 29 29 28 29 28 26 23 12 4 6 11 10 8 9 12 14 12 7 5 7 9 9 8 8 9 9
16 13 11 9 9 9 9 8 8 8 7 7 8 9 8 8 8 8 10 12 13 13 13 14 14 14 14 16 17 17 18 18 19 20 21 22 23 23 22 22 22 23 24 24 23 23 23 23 24 26 26 28 33 34 31 30 30 29 29 30 30 30 29 28 28 26 16 5 5 9 10 8 8 10 13 13 10 6 4 4 6 8 7 8 10
17 14 11 9 10 9 9 8 8 8 8 6 7 8 9 8 8 9 11 12 12 12 13 13 13 13 13 14 16 16 16 17 18 19 19 21 21 21 22 22 22 23 23 23 23 24 26 26 26 27 27 30 34 36 33 30 28 28 29 29 29 30 29 29 29 28 21 11 5 7 9 8 7 8 11 14 13 8 4 1 2 6 6 7 8
18 14 12 12 12 10 9 9 8 8 7 6 6 8 8 9 9 10 11 12 12 12 12 12 13 13 13 13 15 16 15 15 17 17 17 19 21 21 21 22 23 23 23 23 23 25 27 29 29 29 31 33 36 36 35 32 30 28 28 27 28 28 27 28 28 28 25 18 11 9 10 8 7 9 12 14 14 11 6 1 1 3 3 6 5
16 15 16 15 12 10 9 9 9 8 7 6 6 7 8 8 9 10 11 11 11 11 11 12 13 14 14 13 14 16 16 15 16 17 17 18 21 22 22 22 23 23 23 23 24 25 28 31 31 30 31 34 37 37 36 36 34 31 28 25 24 24 25 26 26 25 24 22 17 13 11 9 9 11 13 14 14 12 10 6 2 2 1 1 1
18 18 16 13 10 9 9 10 9 8 7 6 6 8 8 8 9 10 11 11 11 11 11 13 13 13 14 13 13 14 16 15 16 18 19 18 21 24 26 24 23 23 25 27 28 28 28 30 34 34 31 33 37 37 36 38 38 36 32 27 23 23 23 24 25 23 22 20 18 15 12 11 10 12 14 16 16 15 15 13 10 7 4 3 2
20 18 15 11 9 9 10 10 9 7 6 6 7 8 8 8 9 9 10 10 11 11 12 12 12 12 13 13 12 12 15 15 15 17 20 19 20 25 29 28 26 25 26 29 30 31 29 30 34 37 34 33 36 36 36 37 38 38 36 31 27 25 24 23 23 21 18 17 16 14 11 10 10 13 16 18 18 17 18 17 14 12 10 8 7
20 17 15 12 10 9 9 9 8 7 6 6 7 7 8 9 9 8 8 9 10 11 12 11 11 11 12 12 12 11 13 14 13 16 20 20 19 24 29 30 29 28 28 29 31 32 31 30 32 35 35 34 35 34 35 37 37 37 37 34 31 28 25 24 22 19 16 14 11 9 8 8 9 11 13 15 16 15 15 15 14 12 8 6 7
20 17 15 12 9 9 10 9 8 8 7 7 7 7 8 8 8 7 7 8 8 10 11 10 9 9 10 10 11 11 11 11 11 14 19 19 17 22 29 30 29 30 30 31 31 32 31 30 30 33 34 34 34 34 34 35 36 37 37 35 34 31 27 25 22 18 16 13 8 6 6 7 8 9 10 11 11 9 9 11 13 14 13 7 5
19 16 14 11 10 10 10 9 9 8 7 8 7 7 8 7 7 6 6 7 8 9 10 9 8 8 8 8 10 11 10 10 9 11 16 18 17 21 27 29 28 30 32 31 31 32 32 31 31 32 33 33 34 34 34 35 35 35 34 33 33 32 30 28 24 20 18 15 11 7 6 5 5 6 8 10 9 8 10 12 11 11 14 10 5
18 15 13 11 11 11 10 9 9 8 8 8 7 7 7 6 6 5 5 7 8 9 9 7 6 8 9 8 9 10 10 10 9 8 13 17 18 20 24 26 26 29 31 31 31 31 31 31 30 31 32 33 33 33 33 33 33 32 31 31 31 30 29 28 25 20 16 14 12 8 6 4 3 3 6 10 11 10 11 11 10 9 11 11 8
18 15 13 12 12 12 11 10 10 9 8 8 7 7 6 5 5 5 5 7 9 8 7 6 5 7 9 8 8 9 9 10 9 8 12 16 17 18 21 24 25 26 28 30 31 31 30 30 29 29 30 32 32 31 29 27 27 27 28 29 28 26 26 25 23 19 15 12 9 8 6 5 3 1 4 9 12 12 11 10 10 8 8 11 12
18 15 15 14 13 12 11 10 9 9 8 8 8 7 6 5 5 5 6 9 8 6 5 5 5 7 9 8 8 8 8 9 9 9 12 14 15 16 18 21 23 24 25 27 30 31 30 29 28 27 28 30 30 28 25 23 23 24 26 28 27 25 23 22 21 20 18 15 11 10 10 9 7 4 4 8 11 12 11 12 11 8 8 11 13
19 18 18 17 14 13 11 10 9 9 9 8 8 8 6 5 4 5 6 8 8 6 5 4 5 6 9 8 7 7 8 8 8 9 10 12 13 14 16 18 20 22 23 25 28 29 30 28 26 25 26 28 29 28 26 23 22 23 24 26 27 26 24 24 23 21 21 21 19 16 13 12 11 8 6 8 10 11 11 12 11 8 9 11 11
Wind_Direction
73 73 69 67 70 67 54 40 34 34 34 31 26 26 34 36 33 32 33 35 36 32 30 31 29 26 26 26 26 25 23 22 21 18 15 14 13 11 8 6 6 4 3 360 355 353 351 348 345 341 335 323 315 309 306 305 304 303 302 300 299 298 295 291 296 297 292 285 278 274 269 268 271 269 256 248 230 209 199 178 170 172 157 146 136
81 77 75 74 68 61 58 51 44 41 39 38 38 40 44 44 42 41 41 44 45 41 38 36 33 31 28 26 24 23 22 22 21 16 16 11 6 10 10 6 5 1 0 -0 353 349 348 348 347 343 342 338 332 325 317 310 305 303 300 297 295 294 291 285 283 293 292 283 279 280 276 266 263 259 252 244 222 207 197 180 179 179 165 156 136
82 77 76 71 61 58 60 58 54 52 49 50 51 53 54 52 52 51 47 46 45 42 39 36 34 33 29 25 23 21 20 20 17 12 13 7 358 4 11 7 2 357 358 0 353 348 346 346 347 344 343 342 337 334 329 324 320 314 304 297 293 290 289 283 274 279 288 285 278 274 270 264 256 245 237 231 220 206 198 193 189 184 173 152 133
89 87 80 70 64 66 67 63 62 60 58 57 55 57 58 55 54 53 48 44 42 39 35 31 31 33 31 27 25 20 15 13 10 6 7 5 356 360 7 6 360 353 354 359 353 350 349 345 345 346 346 344 340 337 333 331 331 326 316 306 297 288 285 285 276 265 270 281 280 275 271 262 244 234 227 220 212 200 195 194 187 183 166 142 145
90 91 83 74 70 71 69 67 65 62 61 60 58 58 58 57 55 51 46 41 37 34 32 27 24 25 27 24 22 17 11 6 4 2 3 3 357 356 359 0 357 350 350 356 355 352 352 347 346 348 345 343 341 338 335 333 332 329 325 320 311 300 287 283 278 268 261 259 266 276 276 262 245 233 224 215 209 201 192 187 184 176 156 152 165
89 91 86 79 75 74 71 70 68 64 64 63 61 60 58 55 50 44 41 39 36 30 28 27 23 22 23 20 16 12 7 4 2 359 358 360 356 351 353 356 355 349 348 352 355 356 353 349 350 349 344 343 342 338 337 336 334 331 331 329 322 316 307 292 281 274 266 255 251 259 267 269 270 255 219 202 204 201 187 182 180 167 160 168 169
92 92 89 82 78 77 73 70 70 69 68 66 64 61 55 50 44 41 41 40 37 28 24 27 25 20 18 15 11 9 5 1 359 356 354 356 355 349 351 355 353 351 350 350 354 358 354 352 352 349 345 345 343 341 341 339 336 334 332 330 324 319 318 309 295 285 273 263 255 252 260 268 270 263 233 203 192 187 182 183 178 167 166 165 154
94 91 89 85 81 79 77 74 72 72 69 65 63 59 55 50 43 41 40 36 32 28 26 26 23 17 13 10 8 6 4 359 356 355 352 354 356 350 350 355 352 353 354 353 357 358 354 353 351 348 347 346 345 344 343 341 339 336 330 329 329 323 318 313 305 295 280 268 260 257 260 262 269 267 247 217 194 184 183 184 179 172 167 157 158
96 93 91 87 84 81 80 78 75 72 69 65 62 57 54 51 45 41 37 32 28 28 26 22 18 16 11 10 9 4 3 360 357 356 353 355 357 351 351 355 353 354 356 358 360 358 354 353 351 349 349 348 347 345 342 340 339 336 332 332 333 329 322 315 310 305 292 277 266 263 261 257 269 273 255 229 198 182 179 183 181 176 170 163 168
96 94 92 89 86 84 81 77 73 69 65 63 61 56 53 49 44 40 36 32 26 21 19 15 15 16 12 11 10 5 2 1 1 359 356 358 357 353 355 356 354 356 359 0 359 357 353 350 352 352 350 350 349 347 345 343 341 337 333 332 331 329 326 321 315 308 301 292 276 262 257 254 265 277 269 244 206 186 181 187 184 178 175 168 164
97 95 93 91 87 83 79 74 69 65 61 59 59 57 52 46 41 36 33 29 22 17 15 13 11 11 12 12 11 9 5 2 3 360 358 -0 357 356 357 356 355 356 1 -0 355 356 353 350 354 354 353 354 352 353 355 353 349 345 341 337 332 331 330 325 319 308 302 300 285 264 255 254 258 276 281 258 220 204 193 189 188 183 179 173 164
99 97 94 92 87 81 77 72 66 61 57 55 56 56 51 44 35 30 28 24 18 15 13 12 10 8 9 12 11 11 8 5 4 360 359 0 357 358 357 356 356 356 360 359 354 356 354 351 356 355 356 357 352 356 2 360 356 352 349 346 339 335 332 329 324 313 303 297 289 276 260 252 250 270 284 268 242 222 200 192 192 184 181 182 174
100 99 95 91 86 80 75 70 65 59 55 53 52 51 46 40 34 30 27 20 16 15 11 11 14 10 8 10 10 10 9 6 4 360 359 -0 357 358 357 355 356 355 357 357 354 354 353 355 0 357 355 355 353 359 4 2 1 357 352 349 345 340 335 330 325 317 307 296 292 286 268 254 244 261 287 279 257 227 201 194 188 179 180 183 176
101 99 95 89 83 79 75 70 65 60 56 55 51 46 42 36 32 29 23 17 15 17 13 11 15 12 10 14 12 11 8 4 5 1 0 2 359 358 357 355 356 355 356 355 352 352 354 0 4 356 353 354 355 2 4 3 3 1 357 352 346 343 338 332 326 320 314 305 297 285 271 252 232 252 292 293 261 227 201 193 180 170 174 177 176
100 97 92 88 83 76 72 68 64 60 58 57 52 46 42 33 26 23 20 17 16 19 17 12 14 13 13 17 15 13 10 7 8 5 4 5 -0 358 358 356 357 357 356 354 352 353 354 359 1 353 352 355 357 1 3 2 2 1 1 356 349 345 341 335 328 322 318 311 301 286 275 251 221 245 302 308 246 218 198 192 178 162 162 169 176
100 97 91 87 83 76 72 67 62 58 54 53 51 46 43 33 27 23 18 16 16 19 18 12 14 15 14 17 17 16 14 13 14 11 10 9 2 359 358 356 358 358 356 354 354 355 355 356 358 353 351 354 359 2 2 360 358 359 0 358 353 347 345 341 334 328 324 314 301 291 280 256 230 247 295 314 281 219 191 187 178 166 165 167 172
98 95 89 85 81 76 74 69 64 60 52 49 44 38 34 28 27 25 20 16 14 17 17 13 16 17 16 19 20 19 17 16 16 13 13 11 4 -0 358 356 358 358 355 355 355 356 355 356 359 355 351 354 359 0 359 356 355 356 358 357 354 348 345 344 338 332 326 315 302 289 269 257 249 249 273 308 324 262 194 186 181 175 175 169 170
100 96 90 84 80 74 72 68 65 61 55 51 42 31 25 20 23 26 24 17 12 14 17 15 16 18 18 20 20 18 16 15 14 13 12 10 4 359 356 356 358 357 355 355 356 356 355 356 359 355 352 354 355 354 354 354 354 354 354 356 354 348 344 341 338 334 326 316 308 290 262 259 265 264 274 300 312 283 205 188 179 172 177 173 169
105 100 91 84 81 76 71 66 62 57 52 51 43 32 27 17 17 26 27 18 11 13 17 16 16 17 17 17 17 15 13 12 11 10 9 6 2 357 355 356 357 355 355 355 356 356 355 357 358 355 352 352 349 348 350 352 353 354 354 354 353 348 344 342 340 337 329 320 311 286 259 256 268 279 292 309 289 284 225 191 177 168 172 177 177
109 102 95 88 86 79 71 63 56 53 48 46 41 33 31 22 16 24 28 21 14 12 13 16 15 12 12 13 13 11 10 10 8 7 4 360 358 357 354 356 356 355 356 355 356 357 357 358 358 353 349 348 347 347 349 351 353 354 354 354 352 348 347 347 344 338 331 324 310 269 241 252 269 268 277 334 300 271 216 196 187 179 177 178 178
107 103 100 95 90 79 71 63 55 51 45 44 40 33 33 29 19 21 24 23 18 12 11 13 12 10 8 8 9 7 7 6 4 4 1 356 357 357 355 357 357 357 357 355 357 0 359 0 359 349 345 347 348 349 351 353 355 356 355 354 353 352 352 351 346 337 330 319 277 236 241 261 283 295 319 337 312 272 219 206 195 188 191 184 171
107 106 100 94 87 74 69 65 60 54 45 43 41 35 34 32 24 20 21 22 19 15 12 8 10 10 7 7 7 5 5 3 359 1 360 356 358 358 357 359 358 358 359 358 1 3 1 3 359 347 344 347 349 351 353 355 357 356 355 356 356 356 357 354 350 343 333 324 248 231 258 259 285 340 1 349 315 285 215 195 193 190 199 188 168
113 109 103 97 87 72 63 56 54 54 49 44 42 37 32 31 27 20 19 20 18 17 13 7 10 9 6 10 8 3 5 2 357 359 359 358 0 359 358 1 360 359 1 1 4 5 4 7 0 347 345 348 350 352 354 356 358 356 356 359 360 360 0 358 359 3 2 18 108 295 313 240 270 25 23 2 324 294 238 198 205 199 195 176 162
117 111 106 96 81 68 59 50 48 50 50 47 43 39 32 28 27 20 17 18 18 18 13 9 11 9 9 12 6 2 5 0 356 360 359 0 3 359 359 3 1 0 3 4 6 7 7 8 1 349 348 351 352 353 354 355 358 359 2 4 2 2 7 8 12 27 43 55 65 51 49 154 91 51 21 15 10 319 349 160 196 190 181 163 154
120 113 103 91 76 67 60 51 49 49 51 49 43 38 34 28 26 23 17 15 19 20 13 11 12 10 11 10 3 3 5 359 359 2 1 3 3 359 1 4 2 3 6 7 8 8 11 10 2 352 349 352 355 355 355 356 359 4 8 8 5 7 14 18 25 36 40 40 42 47 65 82 64 50 19 22 29 14 37 77 132 159 162 155 151
123 115 104 95 85 74 67 60 55 52 52 51 45 38 36 30 25 24 19 14 20 21 14 13 13 10 11 8 3 6 4 360 3 4 3 5 4 2 5 6 5 6 8 10 10 10 12 12 4 352 350 354 357 356 357 360 2 6 9 9 10 12 18 25 36 42 37 33 34 39 58 69 50 39 29 30 30 22 33 50 62 116 141 144 145
126 119 110 101 93 80 73 70 62 59 56 52 48 39 35 33 25 25 23 15 18 22 18 16 14 11 11 8 6 8 5 3 6 4 4 7 4 3 7 7 8 11 11 11 12 11 12 14 8 353 350 356 357 358 3 4 4 7 9 8 11 14 18 25 35 39 38 39 41 42 49 48 36 35 36 35 33 25 29 42 50 76 121 133 135
130 123 117 108 100 89 80 76 67 64 62 54 50 40 36 37 28 26 28 17 17 23 21 17 15 12 11 11 10 9 6 6 7 5 6 7 3 4 9 12 12 14 13 12 13 13 10 15 13 357 351 357 358 1 8 5 2 8 10 10 14 16 17 20 23 25 32 40 43 44 45 39 33 37 36 29 24 15 19 36 42 53 105 134 138
136 129 124 115 108 101 91 86 75 67 63 56 51 42 36 38 31 28 30 22 20 24 22 19 16 12 12 13 12 9 7 8 9 8 8 6 3 4 11 17 17 16 15 13 14 13 7 11 14 2 354 357 360 5 8 3 3 9 9 11 18 19 18 19 18 19 34 51 43 41 42 38 33 32 29 22 14 3 6 22 30 51 94 121 135
140 134 128 120 114 109 100 93 83 71 65 60 53 43 38 39 34 30 30 25 23 24 23 21 17 13 14 15 12 9 10 11 10 9 8 5 4 6 13 20 21 19 18 15 14 15 12 12 11 2 357 359 1 5 7 5 8 11 9 11 19 21 20 20 18 23 54 80 45 36 42 41 33 31 30 25 14 4 0 2 14 42 72 101 128
143 137 129 124 118 113 105 96 87 75 66 61 55 46 41 39 35 32 31 28 25 24 24 22 17 14 15 15 12 12 14 14 11 9 7 5 6 10 16 21 21 18 19 20 18 16 13 11 7 2 360 1 2 3 7 11 14 14 11 12 20 27 24 22 25 35 63 78 42 34 46 43 33 31 28 23 20 18 14 360 2 42 65 101 122
146 142 134 128 121 117 113 102 92 81 68 61 57 50 43 41 37 33 33 32 26 23 24 22 18 16 15 15 16 16 17 16 11 8 8 7 9 13 16 18 19 18 20 25 24 16 9 7 8 6 2 2 3 5 9 16 20 18 16 17 24 33 29 26 34 51 68 60 30 29 43 42 34 26 13 11 25 33 32 25 17 45 69 97 111
151 147 137 131 126 123 120 108 96 86 74 62 58 56 48 41 39 35 34 34 28 22 22 23 21 17 15 18 20 20 19 15 11 11 11 10 12 15 16 18 19 19 21 24 22 16 11 11 10 7 3 1 5 9 11 17 24 23 21 25 31 36 31 29 35 51 69 49 18 21 38 41 36 23 4 9 34 46 45 44 40 48 70 95 115
151 143 137 138 134 128 120 108 96 88 80 65 58 61 55 44 41 37 36 37 30 22 20 24 23 18 17 21 22 20 19 16 13 13 13 13 14 16 17 19 18 20 22 21 19 15 13 12 9 6 2 360 7 14 13 16 25 27 25 31 36 35 31 31 35 43 63 45 13 15 26 32 32 19 4 15 47 56 53 50 44 49 70 92 133
145 146 149 149 141 130 120 110 97 85 81 70 60 61 60 52 45 40 38 36 32 24 21 24 25 20 19 24 24 19 20 19 15 14 15 15 15 16 18 19 19 21 19 15 15 16 14 13 9 4 0 358 8 18 15 14 22 27 27 32 36 35 33 34 37 40 54 49 15 13 19 24 26 19 13 27 54 56 56 55 42 36 50 56 131
154 161 160 150 139 131 125 120 110 95 84 78 70 65 64 60 51 44 41 36 32 27 23 24 27 22 19 24 25 21 22 22 17 15 16 16 15 16 18 20 20 18 12 10 16 19 17 14 6 1 1 3 13 20 18 15 19 24 27 31 34 35 33 34 37 38 42 43 11 9 17 24 22 19 21 39 58 55 60 61 44 29 28 29 66
165 168 160 149 138 126 122 122 117 106 93 84 78 68 65 68 60 48 41 37 34 29 24 25 28 26 21 21 24 26 25 23 19 17 17 15 15 17 18 20 21 16 12 15 20 18 14 10 4 3 6 10 17 22 21 19 19 23 29 32 34 35 31 29 31 32 31 19 358 1 9 20 20 16 19 34 54 57 66 73 64 47 26 20 31
171 167 155 142 124 107 104 104 104 103 99 97 95 83 69 67 66 55 41 38 38 32 26 27 31 31 23 19 25 32 29 23 21 19 15 15 17 17 17 21 22 17 15 19 20 17 15 15 13 13 13 16 22 25 24 24 23 26 32 34 33 33 28 24 26 29 27 5 357 5 7 8 13 15 17 22 31 43 60 74 76 65 44 36 39
169 161 148 131 117 112 109 101 97 95 91 94 102 101 90 75 68 58 42 38 39 36 30 30 34 35 28 20 25 33 28 22 23 20 14 14 17 18 19 22 21 18 18 20 19 18 21 22 21 19 18 22 28 28 27 27 27 30 35 35 31 29 27 25 26 27 27 18 1 12 14 6 6 13 15 16 16 15 29 55 58 52 60 72 59
157 154 143 126 118 117 111 106 104 102 97 93 91 92 92 82 70 57 44 40 40 37 33 34 37 38 33 23 23 30 27 20 22 23 16 12 15 20 24 25 23 21 20 20 20 22 26 28 26 24 24 27 28 28 29 30 30 33 37 37 33 28 26 27 27 24 25 31 26 16 19 16 14 17 16 13 14 15 11 10 33 35 64 100 83
157 151 134 126 125 123 118 116 114 110 109 108 95 86 85 80 69 56 47 43 43 39 36 39 40 38 37 30 25 31 32 22 19 23 20 13 13 20 27 28 26 24 22 21 20 24 30 32 29 28 29 28 25 27 31 33 32 35 38 38 35 31 26 27 28 25 25 32 41 33 29 35 40 33 22 15 16 22 28 28 294 0 61 104 100
152 137 135 141 143 139 131 124 120 118 118 116 107 98 90 81 70 59 50 46 46 44 41 43 43 37 35 36 31 29 32 28 19 20 25 19 14 20 28 30 28 25 24 24 24 25 31 32 29 28 30 28 25 26 29 32 33 35 38 38 35 31 27 26 30 30 30 34 42 45 46 55 54 37 25 22 25 32 39 46 33 333 313 108 106
143 141 152 158 149 141 138 134 133 137 139 129 113 103 94 81 68 57 50 47 47 49 47 44 43 37 33 37 36 27 29 31 21 18 26 25 18 22 29 29 27 26 26 27 27 26 28 29 26 26 26 25 24 24 25 29 31 32 35 37 34 32 32 30 30 33 35 37 42 50 60 64 53 42 40 40 42 48 52 56 61 61 62 56 58
147 154 160 154 147 148 149 148 149 150 143 127 113 106 99 84 70 57 48 45 46 51 54 46 40 40 37 37 41 33 28 30 24 19 26 28 19 21 26 28 29 29 26 26 26 26 27 26 23 23 23 21 20 21 22 25 26 26 28 32 32 32 35 36 33 33 36 38 40 47 59 59 49 53 60 59 61 63 60 56 55 60 73 73 52
156 160 156 158 165 162 157 155 153 148 138 124 115 111 100 85 75 65 53 48 48 53 58 50 39 41 39 33 39 39 29 27 24 19 26 30 20 15 21 26 29 29 26 24 24 24 26 25 22 22 22 19 18 20 20 22 22 22 23 26 28 29 33 36 36 33 32 38 40 42 51 52 46 54 61 63 68 72 64 54 43 34 42 64 55
164 162 162 170 173 164 162 160 152 149 143 128 118 112 101 87 79 70 56 53 55 54 56 51 39 41 40 30 37 46 35 25 22 18 26 33 23 14 18 24 27 27 26 24 23 23 26 26 23 21 20 19 18 19 20 21 20 19 19 20 23 25 27 32 36 34 32 35 34 25 33 43 42 41 39 38 46 54 50 52 50 30 16 25 77
170 168 170 176 173 166 166 160 151 148 138 126 121 113 105 96 87 76 61 59 65 63 57 47 38 48 50 33 34 45 39 29 25 17 22 30 24 14 18 23 26 27 26 24 23 24 25 25 23 19 18 19 18 19 19 20 19 18 16 17 20 21 22 25 29 29 27 25 18 3 4 24 33 29 30 30 32 42 47 54 64 50 27 28 66
174 174 174 174 170 166 164 158 152 145 135 133 134 126 117 108 94 87 76 69 72 72 64 49 39 57 62 41 31 39 34 29 31 12 9 21 24 15 16 21 24 26 25 24 25 26 25 25 23 19 17 19 19 19 19 18 18 18 17 20 22 21 21 22 21 21 21 16 8 352 342 6 40 28 34 44 51 65 68 58 60 62 48 48 56
176 174 170 169 170 168 165 161 156 153 150 149 144 133 124 111 95 90 88 81 75 70 65 52 43 63 68 48 32 37 32 27 31 12 0 13 22 17 15 17 20 23 23 22 23 26 26 26 26 22 20 21 21 21 21 19 20 23 25 27 26 25 26 27 23 22 23 19 13 8 5 25 65 22 357 24 41 59 70 62 56 58 51 55 65
174 167 166 172 175 173 169 165 163 163 160 155 148 141 131 118 104 95 96 95 89 81 73 57 47 72 80 60 35 40 39 31 31 22 7 9 14 14 14 14 15 19 21 18 20 24 25 26 28 28 29 30 27 24 23 23 24 28 32 34 33 29 30 33 30 25 26 29 36 42 40 46 62 56 354 356 14 32 45 52 60 59 39 47 67
171 167 171 178 180 177 175 172 169 167 162 159 158 153 144 131 115 102 107 115 117 118 110 83 59 71 81 71 49 44 46 38 36 35 26 17 12 9 10 11 12 15 18 15 16 20 22 23 27 31 34 36 33 28 26 27 28 29 32 36 36 33 32 35 36 33 33 37 42 45 44 45 50 54 35 7 359 0 12 32 51 58 45 44 54
Height
1563 1563 1564 1564 1563 1563 1564 1563 1563 1563 1562 1561 1560 1559 1559 1559 1558 1557 1555 1555 1554 1552 1550 1549 1548 1547 1546 1546 1544 1543 1543 1542 1541 1540 1538 1537 1536 1535 1533 1531 1529 1528 1526 1525 1523 1521 1520 1518 1515 1513 1512 1510 1508 1507 1506 1505 1504 1503 1501 1500 1499 1498 1497 1497 1497 1496 1496 1494 1494 1493 1493 1492 1492 1492 1493 1493 1492 1493 1493 1493 1493 1493 1494 1495 1495
1563 1562 1563 1563 1563 1564 1564 1565 1564 1564 1563 1562 1562 1561 1561 1560 1559 1558 1557 1556 1555 1553 1552 1551 1550 1549 1548 1547 1546 1545 1544 1543 1541 1540 1539 1538 1537 1535 1534 1532 1531 1529 1528 1526 1524 1522 1520 1517 1515 1513 1511 1509 1508 1506 1505 1503 1502 1501 1499 1497 1497 1496 1494 1494 1494 1494 1493 1493 1492 1491 1491 1491 1490 1490 1491 1492 1491 1492 1492 1492 1492 1493 1494 1494 1496
1563 1563 1564 1564 1564 1565 1565 1566 1566 1565 1564 1563 1563 1563 1562 1561 1560 1560 1558 1557 1556 1555 1554 1553 1551 1550 1549 1548 1547 1546 1545 1543 1543 1541 1540 1539 1537 1535 1534 1533 1531 1530 1528 1526 1525 1523 1520 1518 1516 1514 1511 1509 1507 1505 1504 1502 1500 1499 1497 1495 1494 1493 1491 1491 1491 1491 1490 1490 1490 1489 1489 1489 1489 1489 1489 1489 1489 1490 1491 1491 1492 1493 1493 1494 1496
1564 1564 1565 1565 1566 1566 1566 1566 1566 1566 1565 1564 1565 1564 1563 1562 1561 1561 1560 1559 1558 1557 1556 1554 1553 1551 1550 1549 1548 1547 1545 1544 1542 1541 1540 1538 1536 1535 1533 1532 1531 1530 1528 1526 1525 1523 1521 1519 1516 1514 1512 1510 1508 1505 1503 1502 1499 1498 1496 1494 1491 1489 1488 1487 1488 1489 1488 1488 1488 1488 1487 1487 1487 1486 1486 1487 1487 1488 1490 1490 1490 1492 1492 1494 1495
1564 1565 1566 1567 1567 1567 1567 1567 1567 1566 1566 1566 1566 1565 1565 1564 1563 1563 1561 1560 1559 1558 1556 1555 1553 1551 1550 1548 1547 1546 1545 1543 1542 1540 1539 1538 1537 1535 1533 1532 1531 1529 1527 1525 1524 1522 1521 1519 1516 1514 1512 1510 1508 1505 1503 1501 1499 1497 1495 1493 1490 1487 1486 1485 1484 1486 1486 1486 1485 1485 1485 1485 1485 1485 1485 1485 1485 1486 1488 1488 1489 1490 1491 1492 1493
1565 1566 1567 1568 1568 1568 1568 1568 1568 1567 1567 1568 1568 1567 1566 1565 1564 1563 1562 1560 1560 1559 1557 1556 1553 1552 1550 1548 1547 1546 1545 1544 1542 1541 1540 1538 1537 1536 1534 1533 1531 1530 1527 1525 1523 1522 1520 1518 1516 1514 1512 1510 1508 1506 1503 1501 1499 1496 1494 1492 1489 1487 1486 1484 1482 1482 1483 1483 1483 1483 1483 1483 1482 1483 1484 1483 1483 1484 1485 1486 1488 1489 1490 1491 1492
1567 1568 1568 1569 1569 1569 1569 1569 1569 1569 1569 1569 1568 1567 1567 1566 1565 1564 1563 1562 1561 1560 1558 1556 1555 1553 1552 1550 1549 1547 1545 1544 1543 1542 1540 1539 1537 1536 1534 1533 1531 1530 1528 1526 1524 1522 1521 1518 1516 1515 1512 1510 1508 1506 1503 1501 1499 1497 1494 1492 1489 1487 1485 1483 1481 1481 1480 1479 1479 1480 1480 1481 1480 1480 1481 1480 1480 1482 1484 1485 1486 1487 1489 1490 1491
1568 1569 1569 1570 1570 1570 1570 1570 1570 1570 1570 1569 1569 1569 1568 1567 1567 1565 1564 1563 1561 1561 1559 1557 1556 1554 1553 1551 1549 1548 1546 1545 1543 1542 1540 1539 1537 1536 1534 1532 1531 1529 1527 1526 1524 1522 1521 1519 1517 1515 1512 1510 1508 1506 1504 1501 1499 1496 1493 1490 1488 1486 1484 1483 1481 1480 1478 1477 1476 1477 1477 1478 1478 1477 1477 1477 1477 1479 1481 1483 1484 1485 1487 1489 1490
1569 1570 1570 1571 1571 1571 1571 1572 1571 1571 1571 1570 1570 1570 1569 1568 1568 1567 1565 1564 1562 1561 1560 1558 1557 1555 1553 1551 1550 1548 1547 1545 1544 1542 1540 1538 1537 1535 1533 1532 1530 1529 1527 1525 1524 1522 1521 1519 1517 1515 1513 1510 1508 1506 1503 1500 1497 1495 1492 1489 1487 1485 1483 1482 1480 1478 1476 1474 1474 1474 1474 1475 1476 1475 1474 1476 1477 1477 1479 1481 1482 1483 1485 1487 1488
1570 1571 1571 1572 1572 1572 1572 1572 1572 1572 1571 1571 1571 1570 1570 1569 1568 1567 1566 1564 1563 1562 1560 1559 1557 1555 1553 1551 1550 1548 1547 1545 1543 1542 1540 1538 1536 1535 1533 1531 1530 1528 1527 1525 1524 1522 1521 1519 1516 1515 1513 1510 1508 1505 1502 1499 1497 1494 1491 1488 1486 1483 1481 1480 1479 1476 1474 1472 1471 1471 1471 1472 1473 1473 1473 1475 1477 1477 1477 1478 1480 1481 1483 1485 1487
1570 1571 1572 1572 1572 1572 1573 1573 1573 1573 1572 1572 1571 1571 1570 1569 1568 1567 1566 1565 1563 1562 1561 1559 1557 1555 1553 1552 1550 1548 1547 1545 1543 1541 1539 1538 1536 1534 1532 1531 1529 1528 1526 1525 1524 1522 1520 1518 1516 1514 1512 1510 1507 1504 1502 1499 1496 1493 1490 1487 1484 1482 1479 1478 1476 1474 1472 1470 1469 1468 1469 1470 1471 1471 1472 1473 1474 1475 1475 1476 1477 1480 1482 1484 1486
1570 1572 1572 1573 1573 1573 1573 1573 1573 1574 1573 1572 1572 1571 1571 1570 1569 1567 1566 1565 1564 1562 1561 1559 1557 1555 1553 1552 1550 1548 1547 1545 1543 1542 1540 1538 1536 1534 1533 1531 1529 1528 1526 1525 1524 1522 1520 1518 1516 1514 1512 1509 1507 1504 1501 1498 1495 1492 1489 1486 1483 1480 1477 1475 1473 1471 1469 1468 1466 1466 1467 1467 1468 1470 1470 1470 1471 1472 1474 1474 1474 1478 1481 1483 1485
1571 1572 1573 1573 1573 1573 1573 1574 1573 1574 1573 1573 1572 1572 1571 1570 1569 1568 1567 1566 1564 1563 1561 1559 1557 1555 1553 1552 1550 1548 1547 1545 1544 1542 1540 1538 1537 1535 1533 1531 1529 1527 1526 1524 1523 1521 1519 1517 1515 1513 1511 1508 1506 1503 1500 1497 1494 1491 1488 1485 1482 1479 1476 1473 1471 1468 1466 1465 1464 1465 1465 1464 1466 1469 1468 1468 1469 1471 1473 1473 1473 1476 1479 1481 1484
1572 1572 1573 1573 1573 1574 1574 1574 1574 1574 1574 1573 1573 1572 1572 1571 1570 1569 1567 1566 1564 1562 1561 1559 1557 1555 1554 1552 1550 1549 1547 1545 1544 1542 1540 1539 1537 1535 1533 1531 1529 1527 1526 1524 1523 1521 1519 1517 1515 1513 1510 1508 1505 1502 1500 1497 1494 1491 1487 1484 1481 1478 1475 1472 1470 1467 1464 1463 1461 1462 1462 1462 1465 1468 1467 1466 1467 1468 1470 1470 1472 1476 1479 1481 1483
1572 1573 1573 1574 1574 1574 1574 1574 1574 1574 1574 1574 1574 1573 1572 1571 1570 1569 1567 1565 1564 1562 1560 1559 1557 1555 1554 1552 1550 1549 1547 1546 1544 1542 1541 1539 1537 1536 1534 1532 1530 1528 1526 1524 1523 1521 1519 1517 1515 1513 1510 1507 1505 1502 1499 1496 1493 1490 1486 1483 1480 1477 1474 1471 1468 1465 1463 1461 1460 1459 1460 1462 1464 1466 1466 1466 1466 1466 1468 1469 1470 1474 1477 1480 1482
1573 1573 1574 1574 1575 1575 1575 1575 1575 1575 1574 1574 1573 1573 1572 1571 1570 1569 1567 1565 1564 1562 1561 1559 1557 1556 1554 1552 1551 1549 1548 1546 1544 1542 1540 1539 1538 1536 1534 1532 1530 1528 1526 1525 1523 1521 1519 1517 1515 1513 1510 1507 1505 1502 1499 1496 1492 1489 1486 1482 1479 1475 1472 1469 1466 1464 1462 1460 1459 1459 1460 1462 1463 1464 1465 1466 1466 1466 1467 1468 1469 1471 1474 1477 1480
1573 1574 1574 1575 1575 1575 1575 1575 1575 1575 1575 1574 1573 1573 1572 1571 1570 1569 1567 1566 1564 1562 1561 1559 1558 1556 1554 1553 1551 1549 1548 1546 1544 1542 1541 1539 1538 1536 1534 1532 1530 1529 1527 1525 1523 1521 1519 1517 1515 1513 1510 1507 1505 1502 1499 1496 1492 1489 1485 1481 1478 1474 1471 1468 1465 1463 1460 1459 1458 1458 1459 1461 1463 1463 1464 1465 1465 1466 1467 1468 1469 1471 1472 1473 1476
1573 1574 1575 1575 1576 1576 1576 1576 1576 1576 1576 1575 1574 1573 1572 1571 1569 1569 1567 1566 1564 1563 1561 1560 1558 1557 1555 1553 1552 1550 1548 1547 1545 1543 1541 1539 1538 1536 1535 1533 1531 1529 1527 1525 1523 1521 1520 1517 1515 1513 1510 1507 1504 1502 1498 1495 1491 1488 1484 1481 1477 1473 1470 1467 1464 1461 1459 1458 1457 1457 1457 1459 1462 1463 1464 1465 1465 1465 1466 1466 1467 1470 1473 1473 1474
1573 1574 1575 1576 1576 1577 1577 1577 1577 1577 1576 1576 1575 1574 1573 1571 1569 1569 1568 1566 1565 1563 1562 1561 1559 1557 1556 1554 1552 1550 1548 1547 1545 1543 1542 1540 1538 1537 1535 1533 1531 1529 1527 1525 1523 1522 1520 1518 1515 1513 1509 1507 1504 1501 1498 1494 1491 1487 1483 1479 1476 1472 1469 1466 1463 1460 1458 1457 1456 1456 1457 1459 1461 1463 1463 1464 1464 1465 1465 1465 1465 1468 1471 1474 1475
1573 1574 1576 1576 1577 1578 1578 1578 1578 1578 1577 1576 1575 1574 1573 1572 1570 1569 1569 1567 1566 1564 1562 1561 1559 1558 1556 1554 1552 1551 1549 1547 1545 1543 1542 1540 1539 1537 1535 1533 1531 1529 1527 1525 1523 1522 1520 1518 1515 1512 1509 1506 1504 1501 1497 1494 1490 1487 1483 1479 1475 1471 1468 1464 1461 1459 1458 1456 1456 1456 1457 1459 1462 1463 1462 1463 1464 1465 1465 1465 1466 1468 1470 1472 1475
1574 1575 1576 1577 1578 1578 1578 1579 1578 1578 1578 1576 1575 1575 1574 1573 1571 1570 1569 1568 1567 1565 1563 1562 1560 1558 1556 1554 1553 1551 1549 1547 1546 1544 1542 1541 1539 1537 1535 1533 1531 1529 1527 1525 1523 1522 1520 1518 1515 1511 1508 1506 1503 1500 1497 1493 1489 1486 1482 1478 1474 1470 1466 1463 1460 1458 1457 1457 1457 1457 1458 1460 1462 1462 1462 1463 1464 1465 1466 1466 1466 1468 1469 1471 1473
1574 1576 1577 1577 1578 1578 1578 1579 1578 1578 1578 1577 1576 1575 1574 1574 1572 1571 1570 1569 1568 1566 1564 1563 1561 1559 1557 1555 1553 1552 1550 1548 1546 1544 1543 1541 1539 1537 1535 1533 1531 1529 1527 1525 1524 1522 1520 1519 1515 1511 1508 1506 1503 1500 1497 1493 1489 1485 1481 1478 1474 1470 1466 1463 1459 1457 1456 1457 1457 1458 1459 1460 1462 1462 1462 1463 1464 1465 1465 1466 1466 1467 1469 1470 1472
1575 1576 1577 1578 1579 1579 1579 1579 1579 1579 1578 1578 1577 1576 1575 1574 1573 1572 1570 1569 1568 1567 1565 1564 1561 1560 1558 1556 1554 1552 1550 1549 1547 1545 1543 1541 1539 1537 1535 1533 1532 1530 1527 1526 1524 1522 1521 1519 1515 1511 1508 1506 1503 1500 1497 1493 1489 1485 1481 1478 1475 1470 1467 1464 1460 1457 1457 1457 1458 1458 1459 1460 1462 1462 1463 1464 1464 1464 1465 1466 1467 1468 1470 1471 1472
1575 1577 1577 1578 1579 1579 1580 1580 1580 1579 1579 1578 1577 1576 1575 1574 1574 1573 1571 1570 1569 1567 1566 1564 1562 1561 1558 1556 1555 1553 1551 1549 1547 1545 1543 1541 1539 1537 1535 1534 1532 1530 1528 1526 1525 1523 1521 1519 1516 1511 1509 1507 1504 1500 1497 1493 1489 1485 1482 1479 1475 1471 1468 1466 1463 1460 1459 1459 1460 1460 1461 1462 1463 1463 1464 1465 1465 1466 1466 1466 1468 1469 1471 1471 1472
1576 1577 1578 1579 1579 1579 1580 1580 1580 1580 1579 1579 1578 1577 1576 1575 1574 1573 1572 1570 1569 1568 1567 1565 1563 1561 1559 1557 1556 1553 1552 1550 1548 1545 1543 1541 1539 1537 1535 1534 1532 1530 1528 1526 1525 1523 1521 1520 1516 1512 1510 1507 1504 1501 1497 1493 1490 1486 1483 1480 1477 1473 1470 1469 1466 1463 1462 1462 1462 1463 1463 1464 1465 1466 1466 1466 1467 1468 1467 1467 1469 1470 1471 1472 1473
1577 1577 1578 1579 1579 1580 1580 1581 1581 1581 1580 1579 1578 1578 1577 1576 1575 1574 1573 1571 1569 1568 1567 1565 1564 1562 1560 1558 1556 1554 1553 1550 1548 1546 1544 1542 1540 1538 1536 1534 1532 1530 1529 1527 1526 1524 1522 1521 1518 1514 1511 1508 1505 1502 1498 1494 1490 1487 1484 1481 1478 1475 1473 1471 1469 1467 1466 1466 1466 1466 1466 1466 1467 1468 1468 1468 1469 1469 1468 1468 1470 1471 1471 1472 1473
1577 1578 1579 1579 1580 1580 1580 1581 1581 1581 1580 1579 1579 1578 1578 1577 1576 1574 1573 1572 1570 1569 1568 1566 1565 1563 1561 1559 1557 1555 1553 1551 1549 1547 1545 1543 1541 1538 1536 1535 1533 1531 1530 1528 1527 1525 1524 1522 1520 1515 1511 1510 1506 1502 1498 1494 1491 1488 1485 1482 1479 1477 1475 1474 1473 1471 1471 1470 1469 1469 1469 1469 1470 1470 1470 1470 1470 1470 1470 1470 1470 1470 1472 1473 1474
1578 1579 1580 1580 1580 1581 1581 1581 1581 1581 1581 1580 1579 1579 1578 1577 1576 1574 1574 1572 1571 1569 1568 1567 1565 1564 1562 1560 1558 1557 1555 1552 1550 1548 1546 1544 1542 1539 1537 1535 1534 1532 1531 1529 1528 1527 1524 1523 1521 1517 1513 1511 1508 1503 1499 1495 1492 1489 1487 1484 1481 1478 1476 1475 1474 1474 1473 1472 1471 1471 1472 1472 1472 1472 1472 1473 1472 1472 1472 1472 1471 1472 1473 1474 1475
1579 1580 1580 1580 1581 1581 1581 1582 1582 1581 1581 1580 1580 1579 1578 1577 1576 1575 1574 1573 1571 1570 1569 1568 1567 1565 1563 1561 1560 1558 1556 1553 1551 1549 1547 1545 1542 1540 1537 1536 1535 1533 1532 1531 1529 1527 1525 1523 1522 1518 1515 1513 1509 1505 1502 1499 1494 1491 1488 1486 1483 1480 1478 1477 1476 1475 1475 1474 1474 1474 1474 1474 1474 1474 1474 1474 1474 1474 1474 1474 1474 1474 1474 1476 1477
1579 1580 1581 1581 1582 1582 1582 1582 1582 1581 1581 1580 1580 1579 1578 1577 1576 1575 1575 1573 1572 1571 1570 1569 1568 1566 1564 1562 1561 1559 1556 1554 1552 1550 1548 1545 1543 1540 1538 1537 1536 1534 1534 1532 1530 1528 1526 1524 1522 1519 1516 1514 1510 1506 1504 1501 1496 1493 1490 1487 1484 1482 1480 1478 1477 1476 1476 1477 1477 1476 1476 1476 1476 1476 1476 1476 1476 1476 1476 1476 1476 1476 1476 1477 1478
1579 1581 1581 1581 1582 1582 1582 1582 1582 1581 1581 1580 1580 1579 1578 1577 1576 1576 1575 1574 1573 1572 1570 1570 1568 1567 1565 1563 1561 1559 1557 1555 1553 1551 1549 1546 1543 1541 1539 1538 1537 1535 1534 1533 1531 1530 1527 1525 1523 1520 1518 1515 1512 1508 1505 1501 1498 1494 1492 1489 1486 1484 1482 1480 1479 1478 1478 1479 1479 1478 1478 1478 1477 1478 1478 1478 1478 1478 1478 1477 1477 1478 1479 1479 1480
1579 1581 1581 1582 1582 1582 1582 1582 1582 1582 1581 1580 1579 1579 1578 1577 1577 1576 1575 1574 1574 1572 1571 1570 1569 1567 1566 1564 1562 1560 1558 1556 1554 1552 1550 1547 1545 1542 1540 1539 1538 1537 1535 1533 1532 1531 1528 1527 1525 1522 1519 1517 1514 1510 1506 1502 1499 1496 1494 1491 1488 1486 1484 1482 1480 1480 1480 1480 1480 1480 1480 1479 1479 1480 1481 1481 1480 1480 1479 1479 1479 1479 1480 1481 1482
1579 1581 1581 1582 1582 1582 1582 1582 1582 1581 1581 1580 1579 1579 1579 1578 1577 1576 1575 1575 1575 1573 1572 1571 1569 1568 1566 1564 1563 1561 1559 1558 1555 1553 1551 1548 1546 1544 1542 1540 1539 1538 1536 1535 1534 1532 1530 1528 1526 1523 1521 1518 1515 1511 1507 1504 1501 1498 1496 1493 1490 1488 1487 1485 1483 1482 1482 1482 1481 1481 1481 1481 1481 1482 1482 1482 1482 1481 1480 1480 1481 1481 1481 1482 1483
1579 1580 1581 1581 1581 1581 1582 1581 1581 1581 1580 1580 1579 1579 1579 1578 1577 1577 1576 1576 1575 1574 1573 1571 1570 1569 1566 1565 1564 1562 1561 1559 1557 1555 1552 1550 1548 1545 1543 1542 1541 1539 1538 1536 1535 1533 1531 1529 1527 1525 1523 1520 1517 1513 1509 1506 1503 1501 1498 1495 1492 1491 1489 1487 1486 1485 1484 1484 1483 1483 1483 1483 1483 1483 1482 1482 1482 1482 1481 1481 1482 1483 1483 1484 1484
1578 1578 1579 1580 1580 1580 1581 1581 1581 1581 1580 1580 1579 1579 1579 1578 1578 1577 1577 1576 1576 1574 1573 1571 1570 1569 1567 1566 1565 1563 1562 1560 1558 1556 1554 1551 1549 1547 1545 1544 1542 1541 1539 1537 1536 1534 1532 1531 1528 1526 1524 1521 1518 1515 1511 1508 1505 1503 1500 1497 1494 1493 1491 1489 1488 1487 1486 1486 1486 1485 1485 1484 1484 1484 1483 1483 1483 1483 1483 1483 1484 1484 1484 1485 1486
1575 1577 1578 1579 1579 1579 1580 1580 1581 1580 1580 1580 1579 1579 1579 1578 1578 1578 1577 1577 1576 1575 1573 1572 1571 1569 1568 1567 1566 1565 1564 1562 1560 1558 1555 1553 1551 1549 1547 1545 1544 1542 1541 1538 1537 1535 1534 1532 1530 1527 1525 1522 1519 1516 1513 1509 1506 1504 1502 1499 1496 1494 1493 1491 1489 1488 1488 1488 1487 1487 1487 1486 1486 1485 1485 1484 1485 1485 1485 1485 1486 1486 1486 1486 1487
1574 1576 1577 1578 1578 1578 1579 1579 1579 1579 1579 1579 1579 1579 1578 1578 1579 1578 1577 1577 1576 1575 1574 1572 1571 1570 1569 1568 1567 1566 1565 1564 1562 1560 1558 1556 1553 1551 1549 1547 1546 1544 1542 1540 1538 1537 1535 1533 1531 1528 1525 1523 1521 1518 1515 1512 1508 1505 1502 1500 1498 1496 1494 1492 1490 1489 1489 1489 1489 1489 1488 1488 1488 1487 1487 1487 1487 1487 1486 1486 1487 1487 1488 1488 1488
1573 1575 1576 1577 1577 1577 1578 1578 1578 1578 1578 1578 1579 1579 1578 1578 1578 1578 1578 1577 1576 1575 1574 1573 1572 1571 1570 1569 1567 1567 1566 1565 1564 1562 1560 1557 1555 1553 1551 1549 1548 1546 1544 1542 1540 1538 1536 1534 1532 1530 1527 1525 1523 1520 1517 1514 1510 1507 1504 1501 1499 1497 1495 1494 1491 1490 1490 1490 1490 1490 1489 1489 1489 1489 1489 1489 1489 1488 1488 1487 1487 1488 1489 1489 1489
1573 1574 1575 1576 1576 1577 1578 1578 1577 1578 1578 1578 1578 1578 1578 1578 1578 1578 1578 1577 1576 1575 1574 1573 1572 1572 1571 1570 1568 1568 1567 1566 1565 1563 1561 1559 1557 1555 1553 1551 1550 1548 1546 1544 1542 1540 1538 1535 1533 1532 1529 1527 1525 1522 1519 1516 1512 1509 1506 1503 1501 1499 1497 1496 1493 1491 1491 1491 1491 1491 1490 1491 1491 1491 1491 1491 1490 1490 1489 1489 1489 1489 1489 1490 1490
1572 1573 1574 1575 1576 1577 1577 1577 1578 1578 1578 1578 1578 1578 1578 1578 1578 1578 1578 1577 1576 1576 1575 1574 1573 1572 1572 1571 1570 1569 1569 1568 1566 1565 1563 1561 1559 1557 1555 1553 1551 1550 1548 1546 1544 1542 1539 1537 1535 1534 1531 1528 1526 1524 1521 1518 1514 1511 1508 1505 1503 1501 1499 1498 1495 1494 1492 1491 1491 1492 1492 1492 1492 1492 1492 1492 1491 1491 1490 1490 1490 1490 1491 1491 1491
1571 1572 1573 1574 1576 1576 1577 1577 1578 1578 1578 1578 1578 1578 1578 1578 1578 1578 1578 1577 1576 1576 1575 1574 1573 1573 1572 1572 1571 1570 1569 1569 1568 1566 1565 1562 1560 1558 1556 1554 1552 1551 1550 1548 1546 1544 1541 1539 1537 1535 1533 1531 1529 1526 1524 1520 1517 1513 1510 1508 1506 1504 1503 1500 1498 1496 1495 1493 1492 1493 1493 1493 1494 1494 1494 1493 1492 1492 1491 1491 1492 1492 1492 1493 1493
1570 1571 1573 1574 1575 1576 1576 1577 1578 1578 1578 1578 1578 1578 1578 1578 1578 1578 1578 1577 1577 1576 1575 1575 1574 1573 1573 1572 1572 1571 1570 1570 1569 1567 1565 1563 1561 1559 1558 1555 1554 1553 1551 1549 1547 1545 1543 1540 1539 1537 1535 1533 1531 1528 1526 1523 1519 1516 1514 1511 1509 1508 1506 1503 1501 1499 1498 1496 1495 1495 1495 1495 1496 1496 1496 1495 1494 1493 1492 1492 1492 1493 1493 1494 1494
1569 1571 1572 1573 1574 1575 1576 1577 1577 1578 1578 1577 1577 1577 1577 1578 1578 1578 1578 1577 1577 1576 1576 1575 1574 1574 1573 1573 1573 1572 1571 1571 1569 1568 1566 1564 1562 1561 1559 1557 1555 1554 1552 1550 1548 1546 1544 1542 1540 1538 1536 1534 1532 1530 1527 1524 1521 1519 1517 1514 1512 1510 1508 1506 1503 1502 1501 1500 1499 1498 1498 1498 1498 1498 1497 1496 1495 1495 1494 1494 1494 1494 1495 1495 1496
1568 1570 1571 1572 1573 1574 1575 1576 1577 1577 1577 1577 1577 1577 1577 1577 1577 1577 1577 1577 1576 1576 1576 1575 1575 1575 1574 1574 1573 1573 1573 1572 1570 1569 1567 1565 1564 1562 1560 1558 1556 1555 1553 1551 1549 1547 1545 1543 1541 1539 1537 1536 1534 1531 1529 1526 1523 1521 1519 1517 1515 1513 1510 1508 1506 1505 1504 1503 1502 1502 1501 1501 1501 1500 1499 1497 1496 1496 1496 1497 1497 1496 1496 1497 1497
1568 1569 1570 1571 1572 1573 1574 1575 1576 1576 1576 1576 1576 1577 1577 1577 1577 1577 1577 1577 1576 1576 1575 1575 1575 1575 1575 1575 1574 1574 1574 1573 1572 1570 1568 1567 1565 1563 1561 1560 1558 1556 1555 1553 1551 1548 1546 1544 1543 1541 1539 1537 1535 1532 1530 1527 1524 1522 1520 1518 1517 1515 1512 1510 1508 1507 1506 1505 1505 1504 1504 1503 1502 1501 1500 1499 1498 1497 1497 1498 1498 1498 1498 1497 1497
1567 1568 1569 1570 1571 1572 1574 1574 1575 1576 1576 1576 1576 1576 1576 1576 1577 1577 1577 1576 1576 1576 1576 1576 1576 1575 1575 1575 1575 1574 1575 1574 1573 1571 1570 1569 1567 1565 1563 1561 1559 1558 1556 1554 1552 1550 1547 1546 1545 1543 1541 1538 1536 1534 1531 1528 1526 1523 1521 1519 1518 1516 1514 1512 1510 1509 1508 1507 1506 1506 1505 1505 1503 1502 1501 1501 1499 1499 1498 1498 1498 1499 1499 1499 1498
1566 1567 1568 1569 1570 1572 1573 1573 1574 1575 1575 1575 1576 1576 1576 1576 1577 1577 1577 1576 1576 1576 1576 1576 1576 1576 1576 1576 1575 1575 1575 1575 1574 1573 1571 1570 1569 1567 1565 1563 1561 1560 1558 1556 1554 1552 1549 1547 1546 1544 1542 1540 1537 1535 1532 1529 1527 1525 1523 1521 1519 1517 1515 1514 1512 1510 1509 1508 1507 1506 1506 1506 1505 1503 1503 1502 1501 1500 1500 1499 1498 1498 1499 1499 1500
1565 1566 1567 1569 1569 1571 1572 1573 1573 1574 1574 1575 1575 1575 1576 1576 1576 1576 1576 1576 1576 1576 1576 1577 1576 1576 1576 1576 1576 1576 1576 1575 1575 1574 1573 1572 1570 1568 1567 1565 1564 1562 1560 1558 1557 1554 1552 1550 1548 1546 1544 1541 1539 1536 1533 1531 1529 1527 1525 1523 1521 1519 1517 1515 1514 1512 1510 1509 1508 1507 1507 1506 1505 1504 1504 1504 1503 1501 1501 1500 1500 1499 1498 1498 1500
1563 1565 1567 1568 1569 1570 1571 1572 1573 1573 1574 1574 1575 1575 1576 1576 1576 1576 1576 1576 1576 1577 1577 1577 1576 1576 1576 1576 1576 1576 1576 1576 1575 1574 1573 1573 1572 1570 1569 1567 1566 1564 1563 1561 1559 1557 1554 1553 1551 1548 1546 1543 1541 1539 1537 1535 1534 1532 1529 1526 1524 1522 1520 1518 1516 1515 1513 1511 1509 1508 1507 1507 1506 1505 1505 1504 1504 1503 1502 1502 1502 1501 1500 1499 1499
1563 1565 1566 1567 1569 1569 1570 1571 1572 1572 1573 1574 1574 1575 1575 1576 1576 1576 1576 1576 1577 1577 1578 1577 1577 1576 1576 1577 1577 1577 1577 1576 1576 1575 1574 1573 1572 1571 1570 1569 1568 1566 1565 1563 1561 1559 1557 1555 1553 1552 1549 1547 1545 1543 1541 1540 1537 1535 1533 1530 1528 1526 1524 1521 1519 1517 1515 1512 1510 1509 1509 1508 1507 1507 1506 1505 1505 1504 1504 1504 1503 1503 1502 1502 1501
1562 1564 1565 1567 1568 1569 1570 1570 1571 1571 1572 1573 1574 1574 1575 1575 1575 1575 1576 1576 1577 1577 1578 1578 1577 1577 1577 1577 1577 1577 1577 1577 1576 1576 1575 1574 1573 1572 1571 1570 1570 1568 1566 1565 1563 1561 1559 1558 1556 1554 1552 1550 1548 1546 1544 1541 1539 1537 1535 1533 1531 1530 1527 1524 1522 1519 1516 1514 1512 1511 1511 1510 1509 1509 1508 1507 1506 1505 1505 1505 1505 1504 1504 1504 1504